Location: Hanover
(52.3667°N, 9.7167°E)
Time: 03:09:01
(UTC+02:00)

ARIANE 6 FM1 Upper Stage - Pass Details

Date: 23 September 2024
Orbit: 564 x 594 km, 62.0° (Epoch: 06 October)

Event Time Altitude Azimuth Distance (km) Brightness Sun altitude
Rises 22:07:22 0° 249° (WSW) 2,790 6.7 -25.3°
Reaches altitude 10° 22:09:40 10° 256° (WSW) 1,900 5.8 -25.6°
Maximum altitude 22:13:48 45° 330° (NNW) 802 3.7 -26.1°
Enters shadow 22:15:03 35° 14° (NNE) 959 3.9 -26.3°
